Vineland (AU8), Ontario

6:13 PM EST on December 14, 2017 (GMT -0500)
Vineland (AU8)

Weather History for CXVN - October, 2012

Change the Weather History Date:

Thursday, October 11, 2012

  Actual Average (CYSN) Record (CYSN)
Temperature  
Mean Temperature 45 °F -  
Max Temperature 55 °F 59 °F 71 °F (2011)
Min Temperature 35 °F 45 °F 35 °F (2004)
Degree Days  
Heating Degree Days 20    
Moisture  
Dew Point 32 °F    
Average Humidity 57    
Maximum Humidity 73    
Minimum Humidity 40    
Precipitation  
Precipitation 0.00 in - - ()
Sea Level Pressure  
Sea Level Pressure 30.06 in    
Wind  
Wind Speed 11 mph ()    
Max Wind Speed 25 mph    
Max Gust Speed 34 mph    
Averages and records for this station are not official NWS values.
T = Trace of Precipitation, MM = Missing Value Source: Averaged Metar Reports

Daily Weather History Graph

Daily Weather History Graph

Search for Another Location

Airport or City:

Trip Planner

Search our weather history database for the weather conditions in past years. The results will help you decide how hot, cold, wet, or windy it might be!

Date:

Astronomy

Oct. 11, 2012 Rise Set
Actual Time 7:27 AM EDT 6:40 PM EDT
Civil Twilight 6:58 AM EDT 7:09 PM EDT
Nautical Twilight 6:25 AM EDT 7:42 PM EDT
Astronomical Twilight 5:52 AM EDT 8:14 PM EDT
Moon 2:57 AM EDT (10/11) 4:21 PM EDT (10/11)
Length of Visible Light 12h 10m
Length of Day
11h 13m
Waning Crescent, 18% of the Moon is Illuminated
Oct 11
Waning Crescent
Oct 15
New
Oct 21
First Quarter
Oct 29
Full
Nov 6
Last Quarter

Hourly Weather History & Observations

Time (EDT) Temp. Windchill Dew Point Humidity Pressure Visibility Wind Dir Wind Speed Gust Speed Precip Events Conditions
12:00 AM 42.4 °F 37.0 °F 29.8 °F 61% 30.02 in - WSW 9.2 mph - N/A   Unknown
1:00 AM 42.8 °F 36.6 °F 27.9 °F 56% 30.04 in - West 11.5 mph - N/A   Unknown
2:00 AM 41.2 °F 35.5 °F 27.9 °F 59% 30.06 in - West 9.2 mph - N/A   Unknown
3:00 AM 39.7 °F 32.7 °F 28.4 °F 64% 30.08 in - West 11.5 mph 18.4 mph N/A   Unknown
4:00 AM 40.5 °F 33.6 °F 29.5 °F 65% 30.09 in - West 11.5 mph - N/A   Unknown
5:00 AM 37.6 °F 32.3 °F 29.5 °F 73% 30.10 in - WSW 6.9 mph - N/A   Unknown
6:00 AM 36.7 °F 30.5 °F 28.8 °F 73% 30.12 in - West 8.1 mph - N/A   Unknown
7:00 AM 36.7 °F 29.9 °F 28.0 °F 71% 30.12 in - WSW 9.2 mph - N/A   Unknown
8:00 AM 37 °F - 28 °F 60% 30.15 in - WSW 9.2 mph - -  
8:00 AM 37.0 °F 30.4 °F 28.2 °F 70% 30.15 in - WSW 9.2 mph - N/A   Unknown
9:00 AM 41.2 °F 36.0 °F 29.3 °F 63% 30.16 in - WSW 8.1 mph - N/A   Unknown
10:00 AM 46.4 °F 40.7 °F 30.0 °F 53% 30.16 in - WSW 12.7 mph 18.4 mph N/A   Unknown
11:00 AM 50.4 °F - 29.7 °F 45% 30.16 in - West 11.5 mph 17.3 mph N/A   Unknown
1:00 PM 52.5 °F - 30.7 °F 43% 30.09 in - SW 13.8 mph 21.9 mph N/A   Unknown
2:00 PM 53 °F - 37 °F 43% 30.04 in - SW 17.3 mph - -  
2:00 PM 52.9 °F - 36.9 °F 55% 30.04 in - SW 17.3 mph 24.2 mph N/A   Unknown
4:00 PM 54.7 °F - 35.6 °F 49% 29.98 in - SW 25.3 mph 34.5 mph N/A   Unknown
5:00 PM 54.9 °F - 36.3 °F 50% 29.95 in - WSW 25.3 mph 34.5 mph N/A   Unknown
6:00 PM 54.5 °F - 35.4 °F 49% 29.96 in - SW 23.0 mph 33.4 mph N/A   Unknown
7:00 PM 54.1 °F - 35.6 °F 50% 29.97 in - SW 17.3 mph 26.5 mph N/A   Unknown
8:00 PM 55 °F - 37 °F 40% 29.97 in - WSW 17.3 mph - -  
8:00 PM 55.4 °F - 37.4 °F 51% 29.97 in - WSW 17.3 mph 26.5 mph N/A   Unknown
10:00 PM 53.2 °F - 41.4 °F 64% 30.01 in - NW 11.5 mph 19.6 mph N/A   Unknown